GMT277 MMPR-MMMX

Flight info

Callsign GMT277
Flight time 1h 14m
Altitude 35000
Route VOLAT1D VOLAT UT119 ESPOS ESPOS3A
Aircraft B737/M-SDE2E3FGHIRWXY/LB1

Departure

Time 2026-04-17 06:00
Airport Puerto Vallarta International Airport (MMPR)

Arrival

Time 2026-04-17 07:14
Airport Mexico City Benito Juárez International Airport (MMMX)
Time Latitude Longitude Altitude Speed Heading
2026-04-17 05:28 20.67887 -105.25063 28 ft 0 kts 135°
2026-04-17 05:52 20.67883 -105.25059 28 ft 5 kts 135°
2026-04-17 05:52 20.67878 -105.25049 28 ft 1 kts 104°
2026-04-17 05:52 20.67881 -105.25037 28 ft 0 kts 68°
2026-04-17 05:52 20.67884 -105.25033 28 ft 0 kts 55°
2026-04-17 05:53 20.67885 -105.25031 28 ft 2 kts 54°
2026-04-17 05:53 20.67912 -105.24997 28 ft 10 kts 47°
2026-04-17 05:54 20.67957 -105.24969 28 ft 7 kts 34°
2026-04-17 05:54 20.68000 -105.24953 28 ft 6 kts 342°
2026-04-17 05:54 20.68024 -105.24974 28 ft 5 kts 318°
2026-04-17 05:54 20.68053 -105.25002 28 ft 7 kts 317°
2026-04-17 05:55 20.68101 -105.25031 28 ft 9 kts 359°
2026-04-17 05:55 20.68157 -105.24987 28 ft 12 kts 47°
2026-04-17 05:55 20.68218 -105.24917 28 ft 14 kts 47°
2026-04-17 05:55 20.68282 -105.24844 28 ft 14 kts 47°
2026-04-17 05:56 20.68346 -105.24772 28 ft 13 kts 47°
2026-04-17 05:56 20.68406 -105.24702 28 ft 13 kts 48°
2026-04-17 05:56 20.68464 -105.24633 28 ft 12 kts 48°
2026-04-17 05:56 20.68521 -105.24567 28 ft 12 kts 47°
2026-04-17 05:57 20.68578 -105.24503 28 ft 12 kts 46°
2026-04-17 05:57 20.68633 -105.24441 28 ft 11 kts 46°
2026-04-17 05:57 20.68686 -105.24381 28 ft 11 kts 46°
2026-04-17 05:57 20.68739 -105.24322 28 ft 11 kts 46°
2026-04-17 05:58 20.68791 -105.24267 28 ft 10 kts 34°
2026-04-17 05:58 20.68856 -105.24275 28 ft 9 kts 324°
2026-04-17 05:58 20.68870 -105.24287 28 ft 0 kts 318°
2026-04-17 05:59 20.68894 -105.24311 27 ft 9 kts 317°
2026-04-17 05:59 20.68925 -105.24365 28 ft 8 kts 259°
2026-04-17 05:59 20.68876 -105.24422 28 ft 20 kts 227°
2026-04-17 06:00 20.68693 -105.24633 28 ft 70 kts 227°
2026-04-17 06:00 20.68138 -105.25264 29 ft 156 kts 227°
2026-04-17 06:00 20.67232 -105.26291 66 ft 219 kts 226°
2026-04-17 06:00 20.66213 -105.27436 1285 ft 203 kts 226°
2026-04-17 06:01 20.65269 -105.28509 2656 ft 200 kts 229°
2026-04-17 06:01 20.64289 -105.29636 3565 ft 213 kts 229°
2026-04-17 06:01 20.63256 -105.30807 4363 ft 225 kts 229°
2026-04-17 06:01 20.62167 -105.32037 5254 ft 228 kts 229°
2026-04-17 06:02 20.61076 -105.33271 6166 ft 229 kts 229°
2026-04-17 06:02 20.59925 -105.34473 7010 ft 233 kts 214°
2026-04-17 06:02 20.58382 -105.34991 7808 ft 236 kts 178°
2026-04-17 06:02 20.56808 -105.34512 8612 ft 237 kts 154°
2026-04-17 06:03 20.55336 -105.33698 9413 ft 242 kts 153°
2026-04-17 06:03 20.53865 -105.32842 10179 ft 247 kts 153°
2026-04-17 06:03 20.52358 -105.31965 11095 ft 245 kts 153°
2026-04-17 06:03 20.50876 -105.31110 12120 ft 241 kts 153°
2026-04-17 06:04 20.49380 -105.30252 12932 ft 246 kts 152°
2026-04-17 06:04 20.47871 -105.29393 13834 ft 245 kts 152°
2026-04-17 06:04 20.46349 -105.28531 14522 ft 250 kts 152°
2026-04-17 06:04 20.44798 -105.27654 15191 ft 254 kts 153°
2026-04-17 06:05 20.43227 -105.26767 15884 ft 257 kts 153°
2026-04-17 06:05 20.41687 -105.25763 16503 ft 264 kts 137°
2026-04-17 06:05 20.40642 -105.24140 17098 ft 275 kts 111°
2026-04-17 06:05 20.40287 -105.22053 17309 ft 299 kts 96°
2026-04-17 06:06 20.40186 -105.19748 17500 ft 323 kts 93°
2026-04-17 06:06 20.40118 -105.17306 17662 ft 344 kts 93°
2026-04-17 06:06 20.40047 -105.14674 17813 ft 365 kts 93°
2026-04-17 06:06 20.39965 -105.11884 17972 ft 384 kts 93°
2026-04-17 06:07 20.39870 -105.08973 18161 ft 399 kts 94°
2026-04-17 06:07 20.39766 -105.05984 18544 ft 407 kts 94°
2026-04-17 06:07 20.39657 -105.02998 19091 ft 407 kts 94°
2026-04-17 06:07 20.39543 -104.99964 19568 ft 411 kts 94°
2026-04-17 06:08 20.39426 -104.96900 20011 ft 416 kts 94°
2026-04-17 06:08 20.39307 -104.93804 20494 ft 419 kts 94°
2026-04-17 06:08 20.39186 -104.90685 20954 ft 422 kts 94°
2026-04-17 06:08 20.39065 -104.87549 21391 ft 426 kts 94°
2026-04-17 06:09 20.38941 -104.84380 21770 ft 431 kts 94°
2026-04-17 06:09 20.38813 -104.81140 21822 ft 443 kts 94°
2026-04-17 06:09 20.38683 -104.77858 21899 ft 454 kts 94°
2026-04-17 06:09 20.38548 -104.74469 21955 ft 462 kts 94°
2026-04-17 06:10 20.38409 -104.71015 22004 ft 470 kts 94°
2026-04-17 06:10 20.38269 -104.67506 22052 ft 476 kts 94°
2026-04-17 06:10 20.38127 -104.63964 22188 ft 480 kts 94°
2026-04-17 06:10 20.37983 -104.60397 22392 ft 481 kts 94°
2026-04-17 06:11 20.37839 -104.56826 22603 ft 482 kts 94°
2026-04-17 06:11 20.37695 -104.53255 22780 ft 484 kts 94°
2026-04-17 06:11 20.37549 -104.49708 22936 ft 486 kts 94°
2026-04-17 06:11 20.37399 -104.46099 23111 ft 487 kts 94°
2026-04-17 06:12 20.37249 -104.42474 23277 ft 489 kts 94°
2026-04-17 06:12 20.37098 -104.38848 23449 ft 491 kts 94°
2026-04-17 06:12 20.36945 -104.35198 23593 ft 493 kts 94°
2026-04-17 06:12 20.36788 -104.31545 23718 ft 494 kts 95°
2026-04-17 06:13 20.36231 -104.27949 23841 ft 491 kts 110°
2026-04-17 06:13 20.35073 -104.24580 24032 ft 490 kts 113°
2026-04-17 06:13 20.33835 -104.21196 24174 ft 491 kts 113°
2026-04-17 06:13 20.32583 -104.17804 24283 ft 493 kts 113°
2026-04-17 06:14 20.31334 -104.14393 24394 ft 494 kts 113°
2026-04-17 06:14 20.30098 -104.10969 24524 ft 495 kts 113°
2026-04-17 06:14 20.28869 -104.07520 24650 ft 496 kts 112°
2026-04-17 06:14 20.27669 -104.04124 24778 ft 497 kts 112°
2026-04-17 06:15 20.26452 -104.00667 24902 ft 498 kts 112°
2026-04-17 06:15 20.25238 -103.97211 25079 ft 498 kts 112°
2026-04-17 06:15 20.24024 -103.93756 25245 ft 498 kts 112°
2026-04-17 06:15 20.22808 -103.90298 25376 ft 499 kts 112°
2026-04-17 06:16 20.21584 -103.86825 25479 ft 500 kts 112°
2026-04-17 06:16 20.20357 -103.83349 25579 ft 502 kts 112°
2026-04-17 06:16 20.19127 -103.79867 25701 ft 503 kts 112°
2026-04-17 06:16 20.17893 -103.76377 25817 ft 504 kts 112°
2026-04-17 06:17 20.16658 -103.72886 25924 ft 505 kts 112°
2026-04-17 06:17 20.15839 -103.70571 25989 ft 505 kts 112°
2026-04-17 06:17 20.14598 -103.67070 26108 ft 506 kts 112°
2026-04-17 06:17 20.13353 -103.63559 26228 ft 506 kts 112°
2026-04-17 06:18 20.11707 -103.58916 26447 ft 505 kts 113°
2026-04-17 06:18 20.10464 -103.55417 26547 ft 506 kts 113°
2026-04-17 06:18 20.09623 -103.53050 26650 ft 506 kts 113°
2026-04-17 06:18 20.07981 -103.48430 27028 ft 502 kts 113°
2026-04-17 06:19 20.07149 -103.46089 27235 ft 500 kts 113°
2026-04-17 06:19 20.05919 -103.42633 27543 ft 498 kts 113°
2026-04-17 06:19 20.04694 -103.39194 27823 ft 497 kts 113°
2026-04-17 06:19 20.03466 -103.35752 28059 ft 497 kts 113°
2026-04-17 06:20 20.02241 -103.32318 28320 ft 497 kts 113°
2026-04-17 06:20 20.01030 -103.28928 28581 ft 497 kts 113°
2026-04-17 06:20 19.99801 -103.25487 28831 ft 498 kts 114°
2026-04-17 06:20 19.98570 -103.22046 29131 ft 497 kts 114°
2026-04-17 06:21 19.97340 -103.18606 29437 ft 497 kts 114°
2026-04-17 06:21 19.96111 -103.15175 29726 ft 497 kts 114°
2026-04-17 06:21 19.94877 -103.11730 30018 ft 497 kts 114°
2026-04-17 06:21 19.93645 -103.08293 30294 ft 497 kts 114°
2026-04-17 06:22 19.92417 -103.04870 30534 ft 497 kts 114°
2026-04-17 06:22 19.91181 -103.01428 30782 ft 498 kts 114°
2026-04-17 06:22 19.89945 -102.97987 31047 ft 498 kts 114°
2026-04-17 06:22 19.88707 -102.94543 31318 ft 498 kts 114°
2026-04-17 06:23 19.87469 -102.91102 31633 ft 497 kts 114°
2026-04-17 06:23 19.86235 -102.87672 31971 ft 496 kts 115°
2026-04-17 06:23 19.85003 -102.84252 32233 ft 497 kts 115°
2026-04-17 06:23 19.83762 -102.80811 32502 ft 498 kts 115°
2026-04-17 06:24 19.82525 -102.77383 32821 ft 497 kts 115°
2026-04-17 06:24 19.81286 -102.73950 33138 ft 497 kts 115°
2026-04-17 06:24 19.80051 -102.70528 33438 ft 497 kts 115°
2026-04-17 06:24 19.78812 -102.67099 33763 ft 496 kts 115°
2026-04-17 06:25 19.77592 -102.63728 34046 ft 496 kts 116°
2026-04-17 06:25 19.76354 -102.60307 34286 ft 496 kts 116°
2026-04-17 06:25 19.75111 -102.56877 34576 ft 495 kts 116°
2026-04-17 06:25 19.73874 -102.53462 34859 ft 494 kts 116°
2026-04-17 06:26 19.72638 -102.50053 35045 ft 495 kts 116°
2026-04-17 06:26 19.70165 -102.43246 35035 ft 496 kts 116°
2026-04-17 06:27 19.67687 -102.36424 35038 ft 493 kts 116°
2026-04-17 06:27 19.65223 -102.29653 35036 ft 490 kts 116°
2026-04-17 06:28 19.62768 -102.22918 35049 ft 487 kts 116°
2026-04-17 06:28 19.60336 -102.16256 35058 ft 487 kts 116°
2026-04-17 06:29 19.57866 -102.09510 35072 ft 494 kts 116°
2026-04-17 06:29 19.55365 -102.02680 35060 ft 496 kts 116°
2026-04-17 06:30 19.52869 -101.95860 35036 ft 495 kts 116°
2026-04-17 06:30 19.50389 -101.89099 35050 ft 495 kts 116°
2026-04-17 06:31 19.47868 -101.82247 35063 ft 502 kts 116°
2026-04-17 06:31 19.45317 -101.75314 35050 ft 506 kts 116°
2026-04-17 06:32 19.42756 -101.68360 35047 ft 506 kts 116°
2026-04-17 06:32 19.40206 -101.61443 35025 ft 506 kts 116°
2026-04-17 06:33 19.37641 -101.54497 35028 ft 505 kts 116°
2026-04-17 06:33 19.35072 -101.47551 35021 ft 505 kts 116°
2026-04-17 06:34 19.32525 -101.40676 35007 ft 504 kts 116°
2026-04-17 06:34 19.29965 -101.33773 34999 ft 503 kts 116°
2026-04-17 06:35 19.27411 -101.26896 34989 ft 502 kts 116°
2026-04-17 06:35 19.24849 -101.20008 34965 ft 501 kts 116°
2026-04-17 06:36 19.22292 -101.13142 34969 ft 501 kts 116°
2026-04-17 06:36 19.19737 -101.06289 34948 ft 500 kts 116°
2026-04-17 06:37 19.17200 -100.99493 34936 ft 499 kts 116°
2026-04-17 06:37 19.14645 -100.92658 34930 ft 499 kts 116°
2026-04-17 06:38 19.12095 -100.85845 34919 ft 498 kts 116°
2026-04-17 06:38 19.09543 -100.79037 34912 ft 498 kts 116°
2026-04-17 06:39 19.06987 -100.72227 34920 ft 498 kts 116°
2026-04-17 06:39 19.04446 -100.65463 34912 ft 498 kts 116°
2026-04-17 06:40 19.01889 -100.58666 34917 ft 497 kts 116°
2026-04-17 06:40 18.99329 -100.51871 34924 ft 496 kts 116°
2026-04-17 06:41 18.96771 -100.45090 34935 ft 496 kts 116°
2026-04-17 06:41 18.94223 -100.38343 34943 ft 496 kts 116°
2026-04-17 06:42 18.91667 -100.31582 34950 ft 495 kts 116°
2026-04-17 06:42 18.89113 -100.24835 34957 ft 494 kts 116°
2026-04-17 06:43 18.86560 -100.18103 34971 ft 492 kts 116°
2026-04-17 06:43 18.85309 -100.14798 34922 ft 478 kts 116°
2026-04-17 06:43 18.84090 -100.11577 34847 ft 465 kts 116°
2026-04-17 06:43 18.82924 -100.08498 34756 ft 452 kts 116°
2026-04-17 06:44 18.81761 -100.05439 34502 ft 445 kts 116°
2026-04-17 06:44 18.80609 -100.02417 34071 ft 443 kts 116°
2026-04-17 06:44 18.79457 -99.99399 33546 ft 442 kts 116°
2026-04-17 06:44 18.78311 -99.96396 33069 ft 441 kts 116°
2026-04-17 06:45 18.77170 -99.93401 32614 ft 438 kts 115°
2026-04-17 06:45 18.76038 -99.90431 32200 ft 435 kts 115°
2026-04-17 06:45 18.74910 -99.87473 31765 ft 432 kts 115°
2026-04-17 06:45 18.74011 -99.84449 31293 ft 435 kts 99°
2026-04-17 06:46 18.73985 -99.81303 30890 ft 436 kts 82°
2026-04-17 06:46 18.74816 -99.78243 30526 ft 433 kts 66°
2026-04-17 06:46 18.76029 -99.75351 30228 ft 428 kts 65°
2026-04-17 06:46 18.77281 -99.72515 29824 ft 425 kts 64°
2026-04-17 06:47 18.78529 -99.69702 29407 ft 421 kts 64°
2026-04-17 06:47 18.79760 -99.66896 28931 ft 419 kts 65°
2026-04-17 06:47 18.80962 -99.64116 28456 ft 412 kts 65°
2026-04-17 06:47 18.82136 -99.61372 27872 ft 408 kts 65°
2026-04-17 06:48 18.83293 -99.58648 27248 ft 405 kts 65°
2026-04-17 06:48 18.84435 -99.55952 26692 ft 401 kts 65°
2026-04-17 06:48 18.85564 -99.53282 26156 ft 396 kts 65°
2026-04-17 06:48 18.86669 -99.50671 25638 ft 391 kts 65°
2026-04-17 06:49 18.87772 -99.48062 25111 ft 387 kts 66°
2026-04-17 06:49 18.88864 -99.45478 24601 ft 383 kts 66°
2026-04-17 06:49 18.89946 -99.42919 24025 ft 381 kts 66°
2026-04-17 06:49 18.91027 -99.40362 23321 ft 382 kts 66°
2026-04-17 06:50 18.92112 -99.37793 22569 ft 381 kts 66°
2026-04-17 06:50 18.93188 -99.35244 21828 ft 380 kts 66°
2026-04-17 06:50 18.94260 -99.32702 21105 ft 378 kts 66°
2026-04-17 06:50 18.95319 -99.30160 20392 ft 376 kts 69°
2026-04-17 06:51 18.95815 -99.27464 19670 ft 374 kts 91°
2026-04-17 06:51 18.95405 -99.24780 19011 ft 371 kts 109°
2026-04-17 06:51 18.94235 -99.22374 18352 ft 368 kts 125°
2026-04-17 06:51 18.92718 -99.20212 17603 ft 364 kts 127°
2026-04-17 06:52 18.91190 -99.18093 16854 ft 362 kts 127°
2026-04-17 06:52 18.89686 -99.15973 16120 ft 359 kts 126°
2026-04-17 06:52 18.88478 -99.13731 15382 ft 356 kts 107°
2026-04-17 06:52 18.87931 -99.11203 14720 ft 351 kts 99°
2026-04-17 06:53 18.87526 -99.08733 14674 ft 327 kts 99°
2026-04-17 06:53 18.87152 -99.06435 14617 ft 306 kts 97°
2026-04-17 06:53 18.87229 -99.04273 14617 ft 289 kts 73°
2026-04-17 06:53 18.88094 -99.02384 14632 ft 288 kts 51°
2026-04-17 06:54 18.89570 -99.00945 14531 ft 293 kts 31°
2026-04-17 06:54 18.91463 -99.00132 14300 ft 295 kts
2026-04-17 06:54 18.93500 -99.00033 14101 ft 293 kts 359°
2026-04-17 06:54 18.95506 -99.00116 13876 ft 291 kts 357°
2026-04-17 06:55 18.97519 -99.00229 13738 ft 288 kts 357°
2026-04-17 06:55 18.99532 -99.00340 13699 ft 289 kts 357°
2026-04-17 06:55 19.01541 -99.00445 13692 ft 287 kts 358°
2026-04-17 06:55 19.03536 -99.00543 13702 ft 287 kts 358°
2026-04-17 06:56 19.05527 -99.00637 13705 ft 287 kts 358°
2026-04-17 06:56 19.07520 -99.00728 13711 ft 287 kts 358°
2026-04-17 06:56 19.09522 -99.00819 13722 ft 287 kts 358°
2026-04-17 06:56 19.11314 -99.00899 13745 ft 286 kts 358°
2026-04-17 06:57 19.13299 -99.00988 13765 ft 285 kts 358°
2026-04-17 06:57 19.15274 -99.01076 13773 ft 279 kts 358°
2026-04-17 06:57 19.17167 -99.01272 13775 ft 267 kts 343°
2026-04-17 06:57 19.18790 -99.02143 13605 ft 265 kts 320°
2026-04-17 06:58 19.20144 -99.03466 13362 ft 263 kts 317°
2026-04-17 06:58 19.21453 -99.04793 13073 ft 262 kts 317°
2026-04-17 06:58 19.22777 -99.06125 12817 ft 262 kts 317°
2026-04-17 06:58 19.24071 -99.07476 12542 ft 263 kts 308°
2026-04-17 06:59 19.24911 -99.09183 12283 ft 260 kts 292°
2026-04-17 06:59 19.25592 -99.10949 12000 ft 259 kts 292°
2026-04-17 06:59 19.26284 -99.12711 11734 ft 258 kts 292°
2026-04-17 06:59 19.26974 -99.14453 11451 ft 257 kts 292°
2026-04-17 07:00 19.27672 -99.16185 11174 ft 255 kts 296°
2026-04-17 07:00 19.28792 -99.17612 10888 ft 254 kts 325°
2026-04-17 07:00 19.30315 -99.18513 10648 ft 249 kts 335°
2026-04-17 07:00 19.31886 -99.19262 10367 ft 244 kts 336°
2026-04-17 07:01 19.33408 -99.19973 10123 ft 239 kts 338°
2026-04-17 07:01 19.35016 -99.20194 9803 ft 233 kts 15°
2026-04-17 07:01 19.36363 -99.19381 9617 ft 218 kts 40°
2026-04-17 07:01 19.37461 -99.18333 9401 ft 207 kts 53°
2026-04-17 07:02 19.38242 -99.17105 9219 ft 197 kts 59°
2026-04-17 07:02 19.38928 -99.15882 9060 ft 192 kts 59°
2026-04-17 07:02 19.39609 -99.14661 8777 ft 195 kts 59°
2026-04-17 07:02 19.40297 -99.13434 8418 ft 193 kts 59°
2026-04-17 07:03 19.40981 -99.12216 8148 ft 191 kts 58°
2026-04-17 07:03 19.41436 -99.11405 7959 ft 195 kts 58°
2026-04-17 07:03 19.42125 -99.10175 7723 ft 195 kts 58°
2026-04-17 07:03 19.42790 -99.09002 7461 ft 196 kts 57°
2026-04-17 07:04 19.43471 -99.07778 7304 ft 189 kts 59°
2026-04-17 07:04 19.44073 -99.06634 7651 ft 169 kts 67°
2026-04-17 07:04 19.44544 -99.05374 7615 ft 200 kts 72°
2026-04-17 07:04 19.44891 -99.04027 7889 ft 209 kts 79°
2026-04-17 07:05 19.45177 -99.02532 8481 ft 212 kts 80°
2026-04-17 07:05 19.45303 -99.00804 8020 ft 250 kts 88°
2026-04-17 07:05 19.45715 -98.99055 9163 ft 245 kts 64°
2026-04-17 07:05 19.46674 -98.97405 8964 ft 271 kts 53°
2026-04-17 07:06 19.48026 -98.96112 8895 ft 264 kts 23°
2026-04-17 07:06 19.49799 -98.95869 8824 ft 252 kts 348°
2026-04-17 07:06 19.51445 -98.96354 8825 ft 243 kts 347°
2026-04-17 07:06 19.52934 -98.97089 8786 ft 241 kts 315°
2026-04-17 07:07 19.53700 -98.98619 8805 ft 239 kts 279°
2026-04-17 07:07 19.53712 -99.00372 8834 ft 242 kts 263°
2026-04-17 07:07 19.53412 -99.02155 8854 ft 247 kts 258°
2026-04-17 07:07 19.53050 -99.03947 8854 ft 248 kts 258°
2026-04-17 07:08 19.52694 -99.05711 9011 ft 236 kts 258°
2026-04-17 07:08 19.52359 -99.07413 9303 ft 236 kts 257°
2026-04-17 07:08 19.52026 -99.09145 9817 ft 243 kts 257°
2026-04-17 07:08 19.51689 -99.10926 10327 ft 248 kts 257°
2026-04-17 07:09 19.51355 -99.12716 10741 ft 247 kts 258°
2026-04-17 07:09 19.51021 -99.14517 11221 ft 254 kts 258°
2026-04-17 07:09 19.50654 -99.16488 10996 ft 284 kts 258°
2026-04-17 07:09 19.50186 -99.18496 10943 ft 286 kts 244°
2026-04-17 07:10 19.49055 -99.20213 10945 ft 285 kts 223°
2026-04-17 07:10 19.47548 -99.21573 10938 ft 284 kts 218°
2026-04-17 07:10 19.46014 -99.22888 10854 ft 284 kts 218°
2026-04-17 07:10 19.44460 -99.24104 10711 ft 269 kts 204°
2026-04-17 07:11 19.42730 -99.24555 10644 ft 249 kts 179°
2026-04-17 07:11 19.41067 -99.24311 10534 ft 235 kts 160°
2026-04-17 07:11 19.39621 -99.23541 10466 ft 233 kts 149°
2026-04-17 07:11 19.38240 -99.22645 10060 ft 239 kts 142°
2026-04-17 07:12 19.37345 -99.21235 9958 ft 225 kts 103°
2026-04-17 07:12 19.37290 -99.19599 9752 ft 218 kts 91°
2026-04-17 07:12 19.37376 -99.18033 9498 ft 213 kts 78°
2026-04-17 07:12 19.38102 -99.16689 9240 ft 210 kts 49°
2026-04-17 07:13 19.39107 -99.15549 9127 ft 215 kts 50°
2026-04-17 07:13 19.39925 -99.14198 8791 ft 218 kts 59°
2026-04-17 07:13 19.40657 -99.12795 8354 ft 216 kts 61°
2026-04-17 07:13 19.41367 -99.11482 8052 ft 195 kts 58°
2026-04-17 07:14 19.42047 -99.10304 7704 ft 180 kts 57°
2026-04-17 07:14 19.42654 -99.09253 7448 ft 164 kts 58°
2026-04-17 07:14 19.43183 -99.08303 7302 ft 140 kts 59°
2026-04-17 07:14 19.43449 -99.07824 7304 ft 42 kts 59°
2026-04-17 07:15 19.43574 -99.07599 7303 ft 34 kts 59°
2026-04-17 07:15 19.43687 -99.07399 7302 ft 25 kts 58°
2026-04-17 07:15 19.43766 -99.07257 7302 ft 21 kts 60°
2026-04-17 07:15 19.43825 -99.07227 7302 ft 6 kts 337°
2026-04-17 07:16 19.43858 -99.07258 7302 ft 6 kts 312°
2026-04-17 07:16 19.43870 -99.07298 7302 ft 6 kts 259°
2026-04-17 07:16 19.43852 -99.07335 7302 ft 6 kts 240°
2026-04-17 07:16 19.43826 -99.07381 7302 ft 10 kts 239°
2026-04-17 07:17 19.43789 -99.07446 7302 ft 11 kts 239°
2026-04-17 07:17 19.43751 -99.07514 7302 ft 11 kts 239°
2026-04-17 07:17 19.43670 -99.07660 7302 ft 12 kts 238°
2026-04-17 07:18 19.43626 -99.07738 7302 ft 12 kts 239°
2026-04-17 07:18 19.43581 -99.07818 7302 ft 13 kts 239°
2026-04-17 07:18 19.43534 -99.07902 7302 ft 13 kts 239°
2026-04-17 07:18 19.43486 -99.07988 7302 ft 14 kts 239°
2026-04-17 07:19 19.43439 -99.08072 7302 ft 13 kts 239°
2026-04-17 07:19 19.43399 -99.08144 7302 ft 10 kts 238°
2026-04-17 07:19 19.43368 -99.08197 7302 ft 7 kts 238°
2026-04-17 07:19 19.43350 -99.08228 7302 ft 0 kts 238°
2026-04-17 07:20 19.43332 -99.08260 7302 ft 10 kts 240°
2026-04-17 07:20 19.43291 -99.08334 7302 ft 13 kts 238°
2026-04-17 07:20 19.43248 -99.08411 7302 ft 11 kts 240°
2026-04-17 07:20 19.43212 -99.08477 7302 ft 9 kts 240°
2026-04-17 07:21 19.43182 -99.08531 7302 ft 8 kts 240°
2026-04-17 07:21 19.43159 -99.08574 7302 ft 6 kts 240°
2026-04-17 07:21 19.43144 -99.08599 7302 ft 1 kts 238°
2026-04-17 07:21 19.43146 -99.08652 7302 ft 9 kts 318°
2026-04-17 07:22 19.43203 -99.08676 7302 ft 9 kts 342°
2026-04-17 07:22 19.43213 -99.08679 7302 ft 6 kts 343°